Theta_e
310 310 311 311 310 311 312 312 312 313 313 313 313 312 311 312 313 313 314 314 314 314 320 318 320 321 319 316 317 311 319 313 311 313 315 320 321 313 312 316 312 311 314 312 315
310 310 310 310 310 311 312 312 312 313 313 312 312 312 311 311 312 313 312 314 316 318 318 318 318 316 317 316 319 317 319 318 309 314 321 319 319 316 318 315 314 313 313 314 315
310 310 310 310 310 311 312 312 312 312 313 312 312 312 311 312 311 311 315 315 316 317 317 316 315 315 315 314 318 315 319 314 313 312 315 318 315 314 318 318 316 316 315 315 315
310 309 310 309 310 311 311 311 311 312 312 311 312 312 312 311 312 310 313 314 315 316 315 317 316 315 315 319 319 318 315 312 312 310 313 316 313 315 315 316 309 313 315 315 315
310 309 310 309 310 310 309 309 310 311 311 310 310 310 310 311 311 310 310 309 311 314 316 315 317 316 318 318 317 314 312 309 308 310 311 312 314 313 310 309 312 314 315 315 315
310 310 309 309 310 310 308 307 310 310 310 311 310 310 310 311 309 308 308 308 310 313 314 313 314 314 316 319 320 315 310 309 308 309 309 313 311 314 309 311 314 315 315 314 314
309 309 308 307 307 306 306 306 309 308 310 311 310 309 309 311 308 307 307 309 310 312 313 312 312 312 314 315 309 308 310 309 308 309 311 312 315 312 308 311 314 314 314 314 314
310 309 306 306 305 305 305 306 307 307 310 308 310 309 309 307 308 307 308 308 309 314 312 312 313 314 311 310 308 310 310 314 310 308 309 313 322 309 307 312 313 313 313 313 312
309 310 309 305 304 304 304 306 308 307 308 307 309 308 310 308 310 309 308 310 312 313 312 313 311 312 309 311 310 307 314 313 311 307 309 314 313 308 308 310 311 312 312 312 311
309 309 308 309 305 305 304 306 307 306 307 307 307 306 305 309 309 309 309 311 313 313 313 312 311 311 310 314 318 312 311 310 312 309 310 311 310 308 308 310 310 309 309 310 310
308 308 308 308 306 306 306 307 304 304 306 307 308 309 309 309 309 309 310 312 312 313 314 310 312 315 315 312 309 307 309 311 309 308 310 309 310 309 307 309 309 307 307 308 309
307 307 307 308 306 306 305 305 305 305 307 306 307 307 308 308 311 310 311 312 313 315 311 312 315 310 310 309 308 308 311 310 309 307 310 308 309 308 306 308 308 308 307 307 307
307 306 307 308 306 305 306 306 306 305 303 305 307 307 308 308 311 311 311 311 313 314 313 315 312 311 311 309 309 307 311 309 312 308 306 310 312 309 307 305 305 305 305 305 306
306 306 307 307 305 304 305 306 306 306 297 301 310 309 310 310 312 310 311 312 313 314 314 312 311 311 310 309 308 310 307 308 310 311 317 305 318 307 308 307 306 305 304 304 304
306 306 307 306 305 304 306 304 305 303 301 304 310 308 309 310 309 310 310 313 314 314 313 313 311 311 312 310 308 309 307 307 306 306 308 308 313 307 306 308 308 307 304 303 302
306 306 308 306 305 305 304 304 303 299 305 307 311 312 312 310 311 311 311 312 311 312 312 313 310 310 310 307 307 304 305 306 305 307 312 306 308 308 307 308 308 306 305 304 302
307 307 308 305 305 305 304 301 301 305 305 308 313 312 312 312 312 312 313 315 316 313 315 314 311 310 308 309 308 306 308 309 312 310 312 305 306 308 303 310 309 308 305 302 304
306 306 306 306 306 305 304 300 303 306 313 311 313 312 313 313 313 311 314 314 311 310 313 315 316 310 310 309 311 307 307 311 311 311 310 306 310 309 303 309 308 306 307 308 308
305 305 306 306 305 305 300 302 303 307 310 312 311 312 315 313 313 313 312 312 310 307 313 310 312 309 310 309 309 310 310 304 306 304 311 308 307 305 307 310 309 309 309 309 308
304 306 306 306 305 304 301 307 307 306 310 310 312 311 312 313 313 311 311 310 311 309 306 307 313 310 310 308 307 308 306 311 308 311 311 307 308 313 310 311 310 310 310 308 307
306 305 305 305 304 299 302 304 307 307 308 310 310 310 309 310 309 310 310 311 311 311 306 307 309 311 309 309 309 309 309 307 306 307 310 310 310 304 306 309 310 310 308 308 307
304 305 305 304 303 298 300 305 309 309 307 309 309 309 309 309 311 311 311 311 309 311 311 308 306 310 310 310 309 309 307 305 308 309 306 305 309 305 306 306 307 308 307 304 304
303 303 305 304 302 301 306 309 309 310 310 310 310 309 308 310 311 311 311 310 308 310 310 308 306 307 309 307 307 310 309 304 302 305 309 310 308 306 305 305 306 307 303 302 298
301 304 302 299 298 304 308 309 309 307 309 308 309 308 309 310 309 311 311 311 308 309 311 307 304 306 308 307 307 310 309 306 306 307 305 306 306 307 308 307 305 303 299 297 297
298 300 301 304 303 305 306 308 309 309 307 305 307 306 308 311 310 311 310 311 310 310 306 308 310 305 305 307 308 308 308 307 307 306 308 305 305 305 308 306 304 301 297 296 297
303 301 297 299 301 304 304 306 307 307 306 306 307 306 305 309 309 310 309 310 310 308 307 303 308 304 304 303 303 306 306 306 306 306 304 305 306 302 303 302 300 299 297 297 297
300 299 300 301 300 302 302 304 305 305 304 304 304 305 307 306 304 303 303 302 305 308 305 304 304 306 309 301 302 305 302 305 306 305 305 308 307 301 303 304 303 299 297 297 297
Wind_Speed
10 11 12 13 14 16 17 18 21 24 21 22 17 14 16 12 13 14 12 10 17 17 10 10 17 9 6 3 4 3 2 4 6 7 5 7 5 2 3 8 2 2 3 5 28
11 12 12 14 15 16 17 18 20 22 22 19 16 13 11 9 11 13 13 11 14 14 13 8 8 9 3 4 4 4 3 7 4 3 4 9 4 11 6 5 2 3 8 22 27
11 12 13 15 14 14 15 16 19 22 21 17 16 14 10 7 3 3 3 14 16 12 15 16 9 6 4 4 5 5 5 3 2 3 2 10 4 3 12 4 6 10 17 22 24
11 12 13 13 13 14 14 15 17 19 20 15 16 13 6 5 5 1 5 6 9 13 12 10 6 9 6 6 5 3 6 2 3 2 2 5 8 5 1 2 3 10 20 22 19
11 12 13 12 13 13 13 14 16 17 16 14 13 1 5 2 6 5 10 10 9 11 13 7 10 9 10 10 6 4 4 3 3 4 2 4 3 6 2 3 12 20 18 18 16
11 11 11 12 14 13 13 13 13 15 13 13 4 3 0 8 5 8 14 15 10 10 11 7 5 6 5 9 12 8 3 4 2 3 2 5 3 2 1 5 15 16 16 14 14
10 11 11 12 14 15 15 15 14 15 14 12 4 3 2 8 18 24 14 12 11 12 9 7 2 1 2 4 5 5 6 2 1 1 4 4 2 2 3 7 14 13 13 12 13
12 12 13 13 15 16 18 19 15 10 10 7 2 3 4 7 10 11 13 14 15 9 10 19 6 4 5 1 5 6 4 5 2 1 3 2 5 2 5 12 13 13 11 11 9
12 13 15 15 17 18 19 17 10 10 5 5 1 1 6 6 5 11 4 8 15 11 10 8 6 4 2 7 5 4 5 3 3 1 2 1 3 4 5 8 11 12 11 10 8
14 14 15 15 16 17 18 13 5 7 1 0 4 2 3 6 8 13 8 6 6 11 5 5 4 3 1 4 10 6 5 3 5 0 3 4 3 6 5 8 10 9 8 8 9
14 15 15 14 13 14 15 4 4 4 9 3 3 4 7 17 2 6 9 12 7 2 4 3 4 2 8 7 5 6 7 7 1 2 5 3 5 6 6 4 7 8 8 8 8
14 15 15 13 12 13 6 2 2 2 1 2 2 3 7 7 4 8 6 4 4 5 7 4 3 6 11 7 7 3 11 4 1 3 5 2 4 4 5 4 5 8 8 8 4
14 14 14 11 10 3 1 2 3 1 2 4 0 2 5 6 5 7 3 4 6 4 4 3 2 9 9 6 7 0 8 5 7 3 6 4 3 4 4 2 4 5 4 6 9
13 12 11 9 2 1 1 2 2 1 4 5 2 1 3 3 3 5 6 1 3 5 3 0 5 3 2 5 5 4 0 7 10 4 5 3 3 4 4 6 5 7 7 7 8
11 10 8 4 2 0 0 1 3 1 5 6 2 4 3 3 5 4 7 4 3 5 2 2 4 4 3 2 2 3 3 3 5 6 5 4 4 2 1 5 9 10 8 8 7
9 7 3 2 1 1 2 3 2 5 2 5 4 3 1 0 2 2 3 1 1 5 6 2 1 2 2 3 3 9 6 7 5 3 3 3 2 3 5 5 2 2 5 7 6
7 4 3 1 1 4 2 1 4 5 1 7 3 3 3 3 1 2 3 0 0 3 2 4 2 3 2 6 5 4 5 3 4 3 3 4 2 6 2 1 1 3 3 5 6
4 3 3 1 3 5 1 4 7 5 0 1 2 5 3 3 2 1 1 2 2 3 3 3 2 5 7 2 5 4 3 5 6 4 3 3 5 4 2 2 2 5 5 5 6
1 4 3 4 5 4 4 4 6 4 3 2 1 1 3 2 2 1 2 2 2 5 1 4 3 3 1 1 1 4 1 3 7 3 3 2 6 6 2 2 3 5 5 6 5
3 5 2 7 5 3 3 3 3 4 2 2 2 0 2 2 1 1 1 1 2 1 3 5 4 2 1 1 5 2 5 2 2 5 3 3 4 4 6 7 5 5 6 5 4
3 2 3 5 4 4 2 4 4 5 3 3 2 2 2 2 3 1 2 1 0 2 3 3 3 2 0 4 3 2 1 5 3 2 4 4 5 5 6 9 9 7 6 6 6
3 0 4 7 2 1 1 4 2 2 2 2 1 3 1 2 1 3 5 2 2 3 1 0 3 4 2 1 0 0 2 4 3 1 2 0 3 1 4 7 7 7 6 5 6
2 2 2 2 1 2 3 2 2 2 3 4 2 3 1 2 1 1 2 2 4 2 2 2 2 3 2 2 2 2 2 4 4 3 2 2 3 1 2 6 6 7 6 6 6
2 1 2 2 1 3 2 2 2 2 2 2 2 2 1 0 2 2 1 3 6 5 7 3 2 4 5 3 3 3 3 3 3 3 3 4 3 4 4 6 5 6 6 7 6
2 3 2 2 3 3 3 1 2 2 2 1 1 1 1 1 1 1 1 1 2 3 3 2 2 2 1 2 1 1 3 6 6 3 5 2 6 4 9 10 9 8 6 7 7
3 3 2 1 1 3 1 4 4 2 1 2 1 1 1 1 1 1 3 2 3 2 2 2 2 2 1 1 2 2 4 6 4 2 4 2 6 7 2 6 7 9 9 8 7
2 1 3 1 1 3 3 4 4 4 1 0 1 2 1 1 1 0 1 4 2 4 3 2 4 2 2 3 2 5 8 9 5 5 7 7 10 6 4 8 12 12 11 9 8
Wind_Direction
344 345 352 347 345 342 336 337 337 339 334 338 325 307 297 279 287 277 246 231 233 236 255 317 215 186 157 202 182 138 188 210 201 173 190 179 142 63 82 124 82 46 105 131 151
343 346 343 345 346 338 334 335 339 339 336 332 325 316 300 285 285 256 247 236 240 236 251 192 218 161 171 200 190 182 194 207 212 224 199 177 167 142 144 133 112 91 73 133 146
338 338 345 342 340 332 331 335 342 342 333 320 319 309 284 281 268 240 335 247 246 240 248 216 217 169 192 173 201 177 203 220 262 258 254 159 129 134 127 202 194 183 154 148 150
332 341 340 337 331 327 331 337 340 336 331 324 322 308 264 188 246 46 328 314 254 239 249 203 205 181 180 197 191 179 227 199 292 303 214 181 131 110 147 157 296 148 153 147 155
333 339 332 334 325 327 333 333 334 334 342 339 337 335 129 233 263 307 311 316 275 237 217 201 208 188 179 179 159 201 190 174 301 255 243 125 126 142 64 8 116 129 145 150 156
332 332 328 331 325 332 334 326 337 344 346 343 359 129 291 249 313 321 311 306 276 235 220 171 321 276 190 182 179 176 182 146 352 150 176 151 134 170 84 131 122 138 144 154 160
328 323 319 322 324 333 332 328 305 321 342 352 303 284 286 273 306 305 283 284 261 237 191 102 180 260 12 123 153 152 130 157 53 317 193 169 71 95 139 134 131 134 148 152 164
327 318 311 312 318 329 330 331 315 308 313 335 285 298 252 257 293 293 288 274 243 218 158 136 277 284 254 170 73 147 88 143 217 133 209 238 186 124 162 147 143 144 153 163 163
319 316 310 308 312 319 326 330 323 334 288 313 292 349 288 303 274 304 298 253 205 145 135 130 75 273 140 134 91 33 153 145 143 129 173 161 143 137 164 150 152 159 165 170 168
317 315 312 309 308 315 321 323 323 10 289 217 18 41 324 307 320 322 306 237 141 140 122 74 78 332 57 145 173 164 127 103 146 232 133 101 106 137 164 164 171 171 172 178 189
319 314 311 310 312 317 323 341 19 348 49 135 294 266 285 320 302 311 350 96 120 127 123 35 89 260 226 218 128 128 123 114 37 330 91 101 134 163 166 165 178 191 188 193 201
318 317 313 310 315 317 312 100 178 173 15 225 293 276 281 324 295 4 38 34 39 77 81 75 238 287 261 177 123 120 129 105 143 10 106 128 98 150 182 211 191 187 199 203 180
317 320 315 310 320 312 14 161 131 108 95 301 31 292 305 332 341 329 31 222 127 152 133 118 212 260 193 146 122 60 145 173 143 139 57 128 77 152 210 241 202 215 195 198 201
317 320 315 319 315 318 276 177 178 333 62 296 49 274 308 290 302 331 345 20 70 90 85 284 304 83 123 110 124 165 149 138 130 106 145 343 209 235 205 213 224 231 219 216 210
314 319 312 318 307 294 239 208 164 83 29 308 6 309 268 33 308 350 342 352 106 123 282 45 47 342 47 78 136 116 79 99 98 88 115 347 80 219 113 232 228 223 220 221 215
306 312 295 257 243 205 178 143 101 44 309 341 317 357 293 343 289 298 349 39 31 68 57 19 206 299 38 45 88 143 92 44 57 81 49 332 93 249 180 214 194 180 200 206 187
291 282 248 223 109 168 164 44 40 70 317 326 343 10 337 55 96 347 8 297 171 111 40 351 84 301 33 78 1 81 60 36 34 34 197 324 84 242 205 197 224 198 152 150 149
279 216 208 186 152 155 122 46 69 235 320 327 312 6 34 353 35 30 123 294 168 65 90 109 57 3 343 64 151 83 96 147 152 162 189 350 222 253 189 80 100 102 132 130 128
153 146 149 175 158 156 73 53 190 228 185 234 271 12 21 30 96 211 239 279 179 183 104 124 31 305 346 342 39 171 12 154 108 31 89 229 282 291 182 108 108 127 131 144 135
162 150 80 157 155 113 78 189 187 203 221 113 37 83 153 226 268 238 346 309 27 236 180 193 93 342 309 359 37 100 137 83 15 133 167 298 275 235 211 190 177 171 169 155 124
166 94 144 150 154 60 144 221 226 215 173 181 236 281 305 151 199 247 220 290 260 297 150 148 103 247 107 24 162 110 85 60 114 106 150 136 251 204 211 193 182 188 181 163 149
139 28 154 159 53 91 159 204 214 203 166 243 264 238 221 357 103 188 202 230 327 258 78 81 117 104 106 318 358 67 139 128 104 220 46 68 263 310 245 201 178 180 171 156 148
139 138 153 184 142 280 269 271 241 209 214 175 250 236 265 115 81 296 289 317 337 35 113 176 45 84 45 20 356 237 138 107 101 99 190 117 269 27 94 147 176 166 163 157 151
110 39 341 60 263 172 182 241 240 236 253 228 247 165 165 17 360 163 323 342 358 4 28 44 98 153 180 185 137 171 178 161 124 115 168 227 276 227 198 182 171 166 168 169 170
64 242 187 225 264 195 161 174 216 219 238 251 260 79 180 263 156 154 190 334 11 342 5 32 119 100 155 119 132 209 179 177 186 176 164 245 202 247 205 195 190 181 165 163 182
155 151 7 155 305 168 239 220 206 211 185 255 211 4 281 236 181 225 165 223 204 38 67 357 174 131 217 11 67 269 231 202 219 195 267 248 276 215 179 138 172 187 174 186 192
191 138 119 318 121 126 225 202 215 152 191 140 150 110 80 18 287 235 103 78 107 162 164 97 134 100 264 8 327 294 217 190 186 196 154 180 225 163 188 201 196 191 185 184 189